TimeEDT,TemperatureF,Dew PointF,Humidity,Sea Level PressureIn,VisibilityMPH,Wind Direction,Wind SpeedMPH,Gust SpeedMPH,PrecipitationIn,Events,Conditions,WindDirDegrees,DateUTC
12:56 AM,55.0,52.0,89,29.97,10.0,Calm,Calm,-,N/A,,Clear,0,2012-10-21 04:56:00
1:56 AM,55.0,52.0,89,29.98,10.0,Calm,Calm,-,N/A,,Clear,0,2012-10-21 05:56:00
2:56 AM,54.0,51.1,90,29.99,10.0,Calm,Calm,-,N/A,,Clear,0,2012-10-21 06:56:00
3:56 AM,54.0,51.1,90,29.99,10.0,Calm,Calm,-,N/A,,Clear,0,2012-10-21 07:56:00
4:56 AM,52.0,50.0,93,30.00,10.0,Calm,Calm,-,N/A,,Clear,0,2012-10-21 08:56:00
5:56 AM,54.0,48.9,83,30.02,10.0,Calm,Calm,-,N/A,,Clear,0,2012-10-21 09:56:00
6:56 AM,52.0,48.9,89,30.04,10.0,Calm,Calm,-,N/A,,Clear,0,2012-10-21 10:56:00
7:56 AM,54.0,48.9,83,30.06,10.0,NNW,6.9,-,N/A,,Clear,340,2012-10-21 11:56:00
8:56 AM,59.0,51.1,75,30.07,10.0,North,5.8,-,N/A,,Clear,360,2012-10-21 12:56:00
9:56 AM,64.9,52.0,63,30.09,10.0,North,9.2,-,N/A,,Clear,10,2012-10-21 13:56:00
10:56 AM,71.1,52.0,51,30.09,10.0,North,8.1,-,N/A,,Clear,360,2012-10-21 14:56:00
11:56 AM,75.2,51.8,44,30.08,10.0,NNE,10.4,16.1,N/A,,Clear,30,2012-10-21 15:56:00
12:56 PM,75.2,50.0,41,30.08,10.0,NE,9.2,-,N/A,,Partly Cloudy,40,2012-10-21 16:56:00
1:56 PM,75.9,50.0,40,30.06,10.0,Variable,6.9,-,N/A,,Clear,0,2012-10-21 17:56:00
2:56 PM,77.0,50.0,39,30.05,10.0,ESE,3.5,-,N/A,,Clear,110,2012-10-21 18:56:00
3:56 PM,78.1,52.0,40,30.04,10.0,ENE,9.2,-,N/A,,Clear,70,2012-10-21 19:56:00
4:56 PM,75.9,53.1,45,30.05,10.0,East,10.4,-,N/A,,Clear,90,2012-10-21 20:56:00
5:56 PM,73.0,54.0,51,30.06,10.0,East,10.4,-,N/A,,Clear,90,2012-10-21 21:56:00
6:56 PM,68.0,55.0,63,30.07,10.0,NE,8.1,-,N/A,,Partly Cloudy,50,2012-10-21 22:56:00
7:56 PM,64.9,57.0,75,30.09,10.0,NNE,4.6,-,N/A,,Clear,30,2012-10-21 23:56:00
8:56 PM,63.0,57.9,84,30.09,10.0,North,5.8,-,N/A,,Clear,10,2012-10-22 00:56:00
9:56 PM,62.1,57.9,86,30.11,10.0,North,4.6,-,N/A,,Partly Cloudy,360,2012-10-22 01:56:00
10:56 PM,62.1,57.9,86,30.12,10.0,North,4.6,-,N/A,,Partly Cloudy,10,2012-10-22 02:56:00
11:56 PM,62.6,59.0,88,30.11,10.0,NNE,5.8,-,N/A,,Partly Cloudy,20,2012-10-22 03:56:00